Location: ??
(35.4627°N, 139.3695°E)
Time: 15:25:38
(UTC+00:00)

Lacrosse 4 Rocket - Pass Details

Date: 25 November 2020
Orbit: 537 x 620 km, 68.0° (Epoch: 20 January)

Event Time Altitude Azimuth Distance (km) Brightness Sun altitude
Exits shadow 20:57:21 - 327° (NNW) 2,547 4.2 -6.7°
Reaches altitude 10° 20:58:56 10° 323° (NW) 1,929 3.6 -6.4°
Maximum altitude 21:03:07 49° 249° (WSW) 783 1.8 -5.6°
Drops below altitude 10° 21:07:22 10° 174° (S) 1,958 4.5 -4.8°
Sets 21:09:41 0° 169° (S) 2,866 5.5 -4.3°
